This is the latest recevied weather packets stored in our database for station/object W8RSN-13. If no packets are shown the sender has not sent any weather packets the latest 10 day(s).
| Time | Temp. | Humidity | Pressure | Rain* | Wind** | Luminosity | Snow |
|---|---|---|---|---|---|---|---|
| 1788023667 | 31.67° C | 42% | 1015.5 hPa | - | - | - | - |
| 1788023366 | 32.78° C | 42% | 1015.7 hPa | - | - | - | - |
| 1788023066 | 32.22° C | 43% | 1015.5 hPa | - | - | - | - |
| 1788022765 | 31.67° C | 43% | 1015.5 hPa | - | - | - | - |
| 1788022464 | 31.67° C | 43% | 1015.5 hPa | - | - | - | - |
| 1788022164 | 31.67° C | 43% | 1015.5 hPa | - | - | - | - |
| 1788021863 | 31.11° C | 44% | 1015.3 hPa | - | - | - | - |
| 1788021561 | 30.56° C | 45% | 1015.2 hPa | - | - | - | - |
| 1788021260 | 30.56° C | 45% | 1015.4 hPa | - | - | - | - |
| 1788020960 | 30.56° C | 46% | 1015.5 hPa | - | - | - | - |
| 1788020658 | 30.56° C | 45% | 1015.2 hPa | - | - | - | - |
| 1788020358 | 30° C | 47% | 1015.3 hPa | - | - | - | - |
| 1788020057 | 30° C | 47% | 1015.1 hPa | - | - | - | - |
| 1788019756 | 29.44° C | 48% | 1015.1 hPa | - | - | - | - |
| 1788019475 | 28.89° C | 49% | 1015.1 hPa | - | - | - | - |
| 1788019174 | 28.89° C | 50% | 1015.2 hPa | - | - | - | - |
| 1788018873 | 28.33° C | 51% | 1014.9 hPa | - | - | - | - |
| 1788018572 | 28.89° C | 51% | 1015.3 hPa | - | - | - | - |
| 1788018272 | 28.89° C | 49% | 1015.2 hPa | - | - | - | - |
| 1788017971 | 29.44° C | 48% | 1015.3 hPa | - | - | - | - |
| 1788017670 | 28.89° C | 49% | 1015.3 hPa | - | - | - | - |
| 1788017369 | 28.33° C | 51% | 1015.4 hPa | - | - | - | - |
| 1788017068 | 28.33° C | 50% | 1015.4 hPa | - | - | - | - |
| 1788016767 | 27.78° C | 52% | 1015.2 hPa | - | - | - | - |
| 1788016466 | 27.22° C | 53% | 1015.3 hPa | - | - | - | - |
* Rain since midnight (hover to see other rain measurements)
** Current wind speed in m/s (hover to see current wind gust speed)